This is the latest recevied weather packets stored in our database for station/object KJ7BRE-1. If no packets are shown the sender has not sent any weather packets the latest 1 day(s).
| Time | Temp. | Humidity | Pressure | Rain* | Wind** | Luminosity | Snow |
|---|---|---|---|---|---|---|---|
| 1778030133 | 17.78° C | 65% | 1009.1 hPa | 0 mm | 0.45 m/s, 252° | - | - |
| 1778029832 | 18.33° C | 64% | 1009.1 hPa | 0 mm | 0.45 m/s, 252° | - | - |
| 1778029531 | 18.33° C | 66% | 1009.1 hPa | 0 mm | 0 m/s | - | - |
| 1778029230 | 17.78° C | 66% | 1009.1 hPa | 0 mm | 0 m/s | - | - |
| 1778028928 | 17.78° C | 66% | 1009.1 hPa | 0 mm | 0 m/s | - | - |
| 1778028627 | 17.78° C | 66% | 1009.1 hPa | 0 mm | 0.45 m/s, 45° | - | - |
| 1778028326 | 18.33° C | 65% | 1009.1 hPa | 0 mm | 0 m/s | - | - |
| 1778028025 | 18.33° C | 66% | 1009.1 hPa | 0 mm | 0 m/s | - | - |
| 1778027723 | 17.78° C | 65% | 1009.5 hPa | 0 mm | 0 m/s | - | - |
| 1778027422 | 17.78° C | 67% | 1009.1 hPa | 0 mm | 0 m/s | - | - |
| 1778027121 | 17.78° C | 65% | 1009.1 hPa | 0 mm | 0 m/s | - | - |
| 1778026820 | 18.33° C | 65% | 1009.1 hPa | 0 mm | 0.45 m/s, 279° | - | - |
| 1778026519 | 18.33° C | 64% | 1009.5 hPa | 0 mm | 0.45 m/s, 135° | - | - |
| 1778026217 | 18.33° C | 65% | 1009.1 hPa | 0 mm | 0 m/s | - | - |
| 1778025916 | 17.78° C | 67% | 1009.1 hPa | 0 mm | 0.45 m/s, 297° | - | - |
| 1778025615 | 18.33° C | 66% | 1009.1 hPa | 0 mm | 0.45 m/s, 72° | - | - |
| 1778025314 | 17.78° C | 67% | 1009.1 hPa | 0 mm | 0 m/s | - | - |
| 1778025012 | 17.78° C | 68% | 1009.5 hPa | 0 mm | 0.45 m/s, 225° | - | - |
| 1778024711 | 17.78° C | 67% | 1009.5 hPa | 0 mm | 0.45 m/s, 198° | - | - |
| 1778024410 | 17.78° C | 64% | 1009.5 hPa | 0 mm | 0.45 m/s, 144° | - | - |
| 1778024109 | 17.78° C | 66% | 1009.8 hPa | 0 mm | 0.45 m/s, 18° | - | - |
| 1778023808 | 17.78° C | 67% | 1009.5 hPa | 0 mm | 0.45 m/s, 90° | - | - |
| 1778023506 | 17.78° C | 66% | 1009.5 hPa | 0 mm | 0.89 m/s, 324° | - | - |
| 1778023205 | 17.78° C | 65% | 1009.8 hPa | 0 mm | 0.45 m/s, 135° | - | - |
| 1778022904 | 17.78° C | 65% | 1009.5 hPa | 0 mm | 0.45 m/s, 81° | - | - |
* Rain latest hour (hover to see other rain measurements)
** Current wind speed in m/s (hover to see current wind gust speed)